This is the latest recevied weather packets stored in our database for station/object EA1IWF-10. If no packets are shown the sender has not sent any weather packets the latest 10 day(s).
| Time | Temp. | Humidity | Pressure | Rain* | Wind** | Luminosity | Snow |
|---|---|---|---|---|---|---|---|
| 1777939740 | 11.11° C | 62% | 1018.5 hPa | - | - | - | - |
| 1777938839 | 11.11° C | 62% | 1018.5 hPa | - | - | - | - |
| 1777937938 | 11.11° C | 62% | 1018.6 hPa | - | - | - | - |
| 1777937037 | 11.11° C | 62% | 1018.6 hPa | - | - | - | - |
| 1777936136 | 11.67° C | 62% | 1018.4 hPa | - | - | - | - |
| 1777935235 | 11.67° C | 61% | 1018.4 hPa | - | - | - | - |
| 1777934335 | 12.22° C | 59% | 1018.5 hPa | - | - | - | - |
| 1777933434 | 12.22° C | 59% | 1018.5 hPa | - | - | - | - |
| 1777932533 | 12.22° C | 58% | 1018.4 hPa | - | - | - | - |
| 1777931632 | 12.78° C | 57% | 1018.5 hPa | - | - | - | - |
| 1777930731 | 12.78° C | 56% | 1018.6 hPa | - | - | - | - |
| 1777929831 | 13.33° C | 55% | 1018.5 hPa | - | - | - | - |
| 1777928930 | 13.33° C | 55% | 1018.3 hPa | - | - | - | - |
| 1777928029 | 13.33° C | 54% | 1018.2 hPa | - | - | - | - |
| 1777927128 | 13.89° C | 53% | 1017.9 hPa | - | - | - | - |
| 1777926227 | 13.89° C | 52% | 1017.7 hPa | - | - | - | - |
| 1777925327 | 13.89° C | 51% | 1017.4 hPa | - | - | - | - |
| 1777924426 | 14.44° C | 48% | 1017.3 hPa | - | - | - | - |
| 1777923525 | 15° C | 45% | 1016.9 hPa | - | - | - | - |
| 1777922625 | 15.56° C | 44% | 1016.7 hPa | - | - | - | - |
| 1777921723 | 16.11° C | 43% | 1016.5 hPa | - | - | - | - |
| 1777920822 | 16.67° C | 42% | 1016.3 hPa | - | - | - | - |
| 1777919921 | 17.78° C | 39% | 1016.3 hPa | - | - | - | - |
| 1777919021 | 18.33° C | 41% | 1016.2 hPa | - | - | - | - |
| 1777918120 | 17.78° C | 43% | 1016.4 hPa | - | - | - | - |
* Rain since midnight (hover to see other rain measurements)
** Current wind speed in m/s (hover to see current wind gust speed)